ATLAS 5 CENTAUR DEB, 44670

Orbit data source: Space-Track

ATLAS 5 CENTAUR DEB, 44670 is space debris in HEO originally from a launch on Wed, 17 Oct 2018 UTC launched from the Air Force Eastern Test Range (AFETR). Debris objects in space refer to the collection of defunct objects orbiting the Earth. Examples of debris include non-operational satellites, rocket bodies, and fragments generated from explosions, collisions, or faulty payload assembly.

Loading next visibility...
Identifier
44670, 2018-079AG
Orbit
HEO
Last TLE update
2 days ago
Origin
Manufacturer
ULA Decatur
Mission
Spacecraft
Bus & Motor
Unknown
Mass
Unknown
Launch date (UTC)
2018-10-17 (7 years ago)
Launch vehicle
Unknown
Launch site
Air Force Eastern Test Range (AFETR)
Object type
Payload
Rocket body
Debris
Shape & HBR
Unknown
Radar Cross Section
Large (>1 m²)

Expand to show TLE details & history

TLE from 2 days ago
0 ATLAS 5 CENTAUR DEB
1 44670U 18079AG  25131.16488833 -.00000077  00000-0  00000+0 0  9993
2 44670  12.8354  69.5836 4642140 248.7012  56.6636  1.82912893 39702
Epoch: 2025-05-11T03:57Z
Definitive object data (Epoch: 2025-05-11T03:57:26.351Z)
Latitude
0.00001°
Longitude
140.9085°
Altitude
20,271.015 km
Speed
3.975 km/s
True Right ascension
04h 37m 51s
True Declination
0° 00' 00"
Sunlit
Object was in daylight at TLE epoch
Visualization TLE readout
Latitude
-10.08973°
Longitude
11.92375°
Altitude
9,008.863 km
Speed
6.14 km/s
Apparent Right ascension
21h 16m 06s
Apparent Declination
-23° 54' 46"
Sunlit
Object is in daylight
Visualization observer readout
Local Sidereal Time
14:34:40
Azimuth
102.867° ESE
Elevation
-22.717°
Doppler factor
1
Orbital elements
Apogee altitude
34,978.232 km
Perigee altitude
8,755.009 km
Semi-major axis
28,244.758 km
Eccentricity
0.464214
Inclination
12.8354°
RAAN
69.5836°
Arg. of periapsis
248.7012°
True anomaly
111.33929°
Mean anomaly
56.6636°
Eccentric anomaly
83.0666°
Mean motion
0.45723 °/min
BSTAR
Unknown
Orbital period
787.35 mins
Loading maneuver chart data...
Loading SW <> Apogee altitude chart data...

ATLAS 5 CENTAUR DEB Visibility forecast

Observer location: undefined°, undefined°

Span
Click to sort rows by Start time (UTC) header in descending order
Start Az.
Max El. time (UTC)
Max El. Az.
Max El.
End time (UTC)
End Az.
576 mins2025-05-13 20:34:06.643Z228.646° WSW2025-05-14 01:16:06.643Z212.482° SW38.22°2025-05-14 06:10:06.643Z218.036° SW
|